TimeEDT,TemperatureF,Dew PointF,Humidity,Sea Level PressureIn,VisibilityMPH,Wind Direction,Wind SpeedMPH,Gust SpeedMPH,PrecipitationIn,Events,Conditions,WindDirDegrees,DateUTC
12:53 AM,39.0,37.0,93,29.69,4.0,WSW,12.7,-,0.00,,Overcast,250,2012-11-01 04:53:00
1:53 AM,39.0,37.9,96,29.69,3.0,WSW,13.8,17.3,0.01,,Overcast,240,2012-11-01 05:53:00
2:53 AM,39.0,37.0,93,29.70,10.0,WSW,9.2,-,0.00,Rain,Light Rain,250,2012-11-01 06:53:00
3:29 AM,39.2,37.4,93,29.67,10.0,West,11.5,18.4,0.01,Rain,Light Rain,260,2012-11-01 07:29:00
3:43 AM,39.2,37.4,93,29.67,7.0,WSW,9.2,-,0.01,Rain,Light Rain,250,2012-11-01 07:43:00
3:53 AM,39.0,37.0,93,29.70,5.0,WSW,11.5,17.3,0.01,Rain,Light Rain,250,2012-11-01 07:53:00
4:25 AM,39.2,37.4,93,29.67,10.0,WSW,10.4,-,0.00,Rain,Light Rain,250,2012-11-01 08:25:00
4:53 AM,39.0,37.0,93,29.70,10.0,WSW,10.4,-,0.00,Rain,Light Rain,250,2012-11-01 08:53:00
5:53 AM,37.9,37.0,97,29.70,9.0,WSW,12.7,18.4,0.00,,Overcast,240,2012-11-01 09:53:00
6:21 AM,37.4,37.4,100,29.68,9.0,WSW,11.5,-,0.00,,Overcast,250,2012-11-01 10:21:00
6:34 AM,37.4,37.4,100,29.68,10.0,WSW,8.1,-,0.00,,Overcast,250,2012-11-01 10:34:00
6:53 AM,37.9,37.0,97,29.71,10.0,WSW,10.4,19.6,0.01,Rain,Light Rain,250,2012-11-01 10:53:00
7:40 AM,37.4,35.6,93,29.69,8.0,West,11.5,18.4,0.00,Rain,Light Rain,260,2012-11-01 11:40:00
8:31 AM,37.4,37.4,100,29.70,2.0,WSW,10.4,20.7,0.01,,Overcast,240,2012-11-01 12:31:00
8:53 AM,37.9,37.0,97,29.74,4.0,West,11.5,-,0.01,,Overcast,260,2012-11-01 12:53:00
11:00 AM,39.2,37.4,93,29.73,5.0,WSW,8.1,-,0.00,,Overcast,250,2012-11-01 15:00:00
11:40 AM,39.2,37.4,93,29.73,4.0,West,10.4,-,0.00,Rain,Light Rain,260,2012-11-01 15:40:00
11:53 AM,39.9,37.9,93,29.76,4.0,West,9.2,-,0.01,Rain,Light Rain,260,2012-11-01 15:53:00
12:01 PM,39.2,37.4,93,29.73,6.0,West,9.2,-,0.00,Rain,Light Rain,260,2012-11-01 16:01:00
12:29 PM,41.0,37.4,87,29.73,10.0,WSW,8.1,-,0.00,,Overcast,250,2012-11-01 16:29:00
12:40 PM,39.2,37.4,93,29.73,6.0,West,10.4,-,0.00,Rain,Light Rain,260,2012-11-01 16:40:00
12:50 PM,39.2,37.4,93,29.72,4.0,WSW,11.5,-,0.01,Rain,Light Rain,250,2012-11-01 16:50:00
12:53 PM,39.9,37.9,93,29.75,5.0,West,15.0,19.6,0.01,Rain,Light Rain,260,2012-11-01 16:53:00
1:17 PM,39.2,37.4,93,29.72,5.0,West,16.1,21.9,0.00,Rain,Light Rain,260,2012-11-01 17:17:00
1:33 PM,39.2,37.4,93,29.72,5.0,West,13.8,20.7,0.00,Rain,Light Rain,260,2012-11-01 17:33:00
1:53 PM,39.9,37.9,93,29.75,5.0,West,13.8,-,0.00,Rain,Light Rain,260,2012-11-01 17:53:00
2:44 PM,39.2,37.4,93,29.71,7.0,West,17.3,24.2,0.00,,Overcast,260,2012-11-01 18:44:00
2:53 PM,39.0,36.0,89,29.74,9.0,West,13.8,25.3,0.00,,Overcast,260,2012-11-01 18:53:00
3:40 PM,39.2,35.6,87,29.71,10.0,West,13.8,-,N/A,,Overcast,280,2012-11-01 19:40:00
3:53 PM,41.0,35.1,79,29.74,10.0,West,10.4,19.6,N/A,,Overcast,260,2012-11-01 19:53:00
4:22 PM,41.0,35.6,81,29.72,10.0,West,10.4,-,N/A,,Overcast,270,2012-11-01 20:22:00
4:53 PM,41.0,36.0,82,29.75,10.0,West,8.1,-,N/A,,Overcast,260,2012-11-01 20:53:00
5:53 PM,41.0,34.0,76,29.77,10.0,West,13.8,19.6,N/A,,Overcast,280,2012-11-01 21:53:00
6:53 PM,39.0,33.1,79,29.80,10.0,WNW,9.2,-,N/A,,Mostly Cloudy,290,2012-11-01 22:53:00
7:53 PM,37.9,32.0,79,29.81,10.0,WNW,5.8,-,N/A,,Overcast,290,2012-11-01 23:53:00
8:53 PM,37.9,30.9,76,29.80,10.0,Calm,Calm,-,N/A,,Overcast,0,2012-11-02 00:53:00
9:53 PM,37.0,32.0,82,29.81,10.0,SW,4.6,-,N/A,,Overcast,230,2012-11-02 01:53:00
10:53 PM,39.0,32.0,76,29.80,10.0,SW,5.8,-,N/A,,Overcast,220,2012-11-02 02:53:00
11:53 PM,39.9,32.0,73,29.79,10.0,WSW,10.4,-,N/A,,Overcast,240,2012-11-02 03:53:00